STARLINK-32838, 62827

Orbit data source: Space-Track

STARLINK-32838, 62827 is a payload satellite owned by SpaceX/Seattle (US) in LEO that was launched on Fri, 24 Jan 2025 UTC via an FALCON 9 launch vehicle from the Air Force Western Test Range (AFWTR). Payload-class satellites include a variety of spacecraft equipped with specific instruments for various scientific and technological missions. These include communications satellites like Starlink; space stations such as the ISS; scientific satellites like the Hubble; Earth observation satellites from companies like Planet Labs, Umbra, and HawkEye 360; GPS; miniature CubeSats for education and research; and military/defense satellites.

Loading next visibility...
Identifier
62827, 2025-018X
Orbit
LEO
Last TLE update
7 hours ago
Origin
Manufacturer
SpaceX/Seattle
Mission
Partially operational Commercial Communications
Bus & Motor
STARLINK V2M, Unknown motor
Mass
730 kg wet, ~700 kg dry
Launch date (UTC)
2025-01-24 (5 months ago)
Launch vehicle
FALCON 9
Launch site
Air Force Western Test Range (AFWTR)
Object type
Payload
Rocket body
Debris
Shape & HBR
Box + 2 Pan, 29 m
Radar Cross Section
33.884 m², Large (>1 m²)

Expand to show TLE details & history

TLE from 7 hours ago
0 STARLINK-32838
1 62827U 25018X   25182.90906160  .00040311  00000-0  10122-2 0  9997
2 62827  53.1599 359.9259 0000953  67.0880 293.0226 15.39627319 25251
Epoch: 2025-07-01T21:49Z
TLE epoch observation values (Epoch: 2025-07-01T21:49:02.922Z)
Latitude
0.00004°
Longitude
112.466°
Altitude
447.86 km
Speed
7.645 km/s
True Right ascension
23h 59m 42s
True Declination
0° 00' 00"
Sunlit
Object was in daylight at epoch
Visualization orbit readout
Latitude
-23.70755°
Longitude
-49.83945°
Altitude
454.461 km
Speed
7.64 km/s
Apparent Right ascension
09h 50m 42s
Apparent Declination
-53° 24' 18"
Sunlit
Object is in daylight
Visualization observer readout
Local Sidereal Time
16:38:54
Azimuth
227.41° WSW
Elevation
-37.635°
Doppler factor
1
Orbital elements
Apogee altitude
448.118 km
Perigee altitude
446.818 km
Semi-major axis
6,825.605 km
Eccentricity
0.0001
Inclination
53.1599°
RAAN
359.9259°
Arg. of periapsis
67.088°
True anomaly
Unknown
Mean anomaly
293.0226°
Eccentric anomaly
Unknown
Mean motion
3.84885 °/min
Orbital period
93.53 mins
BSTAR
0.0010122
Loading maneuver chart data...
Loading SW <> Apogee altitude chart data...
Loading historical data...
Loading historical data...
Loading historical data...
Loading historical data...
Loading historical data...
Loading historical data...
Loading historical data...

STARLINK-32838 Visibility forecast

Observer location: undefined°, undefined°

Span
Click to sort rows by Start time (UTC) header in descending order
Start Az.
Max El. time (UTC)
Max El. Az.
Max El.
End time (UTC)
End Az.
4 mins2025-07-02 13:33:25.366Z170.149° S2025-07-02 13:35:25.366Z128.114° SE19.187°2025-07-02 13:37:25.366Z87.293° E
5 mins2025-07-02 15:10:25.366Z262.637° W2025-07-02 15:12:25.366Z324.601° NNW34.19°2025-07-02 15:15:25.366Z36.752° NE
4 mins2025-07-02 21:43:25.366Z286.311° WNW2025-07-02 21:44:25.366Z255.278° W36.373°2025-07-02 21:47:25.366Z151.461° SSE
|